Regional Weather Roundup
Issued by NWS

Home | Current Version | Previous Version | Text Only | Print | Product List | Glossary On
Versions: 1 2 3 4 5 6 7 8 9 10 11 12 13 14 15 16 17 18 19 20 21 22 23 24 25 26 27 28 29 30 31 32 33 34 35 36 37 38 39 40 41 42 43 44 45 46 47 48 49 50
000
ASUS44 KFWD 292010
RWRTX
NORTH TEXAS HOURLY WEATHER ROUNDUP
NATIONAL WEATHER SERVICE FORT WORTH TX
300 PM CDT SAT AUG 29 2015

NOTE: "FAIR" INDICATES FEW OR NO CLOUDS BELOW 12,000 FEET WITH NO
SIGNIFICANT WEATHER AND/OR OBSTRUCTIONS TO VISIBILITY.

TXZ118-119-292100-
DALLAS/FORT WORTH METROPLEX

CITY           SKY/WX    TMP DP  RH WIND       PRES   REMARKS
DFW AIRPORT    PTSUNNY   94  64  37 S10       29.96S HX  95
DALLAS LOVE    PTSUNNY   95  63  34 S10G20    29.96F HX  96
FTW MEACHAM    PTSUNNY   99  60  27 S14       29.95F HX  99
DAL-EXECUTIVE  CLOUDY    92  63  38 S12G17    29.97F HX  93
FTW-ALLIANCE   PTSUNNY   97  61  30 S8G20     29.95F HX  97
FTW-NAS-JRB    PTSUNNY   99  60  27 SW8G21    29.95F HX  99
FTW-SPINKS     SUNNY     97  59  28 S10       29.97F HX  96
ARLINGTON      CLOUDY    95  61  32 S8G17     29.96F HX  95
GRAND PRAIRIE  SUNNY     93  64  38 SE10      29.98  HX  95
ADDISON        PTSUNNY   93  63  36 SE16      29.99F HX  94
MESQUITE       SUNNY     91  63  38 S9        29.98F HX  92
LANCASTER      CLOUDY    91  60  35 S6        29.98F HX  91
$$

TXZ091>094-102>105-117-120-121-131>134-292100-
NORTH CENTRAL TEXAS

CITY           SKY/WX    TMP DP  RH WIND       PRES   REMARKS
SHRMAN/DENISON MOSUNNY   96  68  40 S15G21    29.97S HX 101
GAINESVILLE    MOSUNNY   97  60  28 S10G16    29.96F HX  97
BOWIE          MOSUNNY   95  58  28 S9        29.96F HX  94
BRIDGEPORT     MOSUNNY   97  64  34 S7        29.97F HX  99
DECATUR        MOSUNNY   95  58  29 S3        29.97S HX  94
DENTON         PTSUNNY   97  62  31 S16G22    29.94F HX  98
MCKINNEY       PTSUNNY   93  63  36 S18       29.97F HX  94
GREENVILLE     PTSUNNY   91  59  33 S8        29.99S HX  90
ROCKWALL       PTSUNNY   93  65  40 S9        29.97F HX  95
TERRELL        PTSUNNY   92  66  42 S12       29.98F HX  94
WAXAHACHIE     CLOUDY    91  64  40 S10       29.99F HX  93
CLEBURNE         N/A     95  63  34 S10       29.99F HX  96
GRANBURY       PTSUNNY   94  61  32 S9        29.98F HX  94
$$

TXZ083>090-098>101-113>116-127>130-139>142-154-155-292100-
WESTERN NORTH TEXAS

CITY           SKY/WX    TMP DP  RH WIND       PRES   REMARKS
WICHITA FALLS  PTSUNNY   96  61  31 E5        29.95F HX  96
WF-KICKAPOO    PTSUNNY   94  55  26 CALM      29.97S HX  92
VERNON         PTSUNNY   93  55  27 NE6       30.00S HX  90
ABILENE        CLOUDY    88  57  34 W9        30.07S
ABILENE-DYESS  DRIZZLE   86  59  39 SW9       30.06S
BRECKENRIDGE   CLOUDY    96  52  22 W13G21    29.99S HX  93
GRAHAM         PTSUNNY   98  62  30 W10G16    29.95F HX  99
MINERAL WELLS  PTSUNNY   95  65  37 SW9       29.96F HX  97
STEPHENVILLE   CLOUDY    92  60  34 SW6       30.03F HX  92
COMANCHE       CLOUDY    88  62  41 W9        30.04F
COLEMAN        LGT RAIN  83  63  50 W6        30.08S
BRADY          SUNNY     90  59  35 NW6       30.07S
$$

TXZ143>147-156>162-174-175-292100-
CENTRAL TEXAS

CITY           SKY/WX    TMP DP  RH WIND       PRES   REMARKS
WACO           MOSUNNY   95  62  33 S9        29.99F HX  96
WACO-MCGREGOR  SUNNY     93  63  36 VRB6      29.99F HX  94
HILLSBORO      MOSUNNY   92  60  34 S10       29.99F HX  91
CORSICANA      MOSUNNY   93  64  38 CALM      30.00F HX  94
MEXIA          MOSUNNY   93  66  39 SE16G22   29.99F HX  96
HEARNE         MOSUNNY   91  65  42 SE6       30.01F HX  93
CAMERON        MOSUNNY   93  65  38 S6        29.99F HX  95
TEMPLE         SUNNY     93  63  36 S9        30.00F HX  94
KILLEEN        MOSUNNY   93  58  30 NE8       30.00F HX  92
KILLEEN-SKYLRK MOSUNNY   93  63  36 S5        30.00F HX  94
FORT HOOD      MOSUNNY   92  61  34 SE7       29.99F HX  92
GATESVILLE     MOSUNNY   93  61  33 S3        30.02F HX  93
HAMILTON       PTSUNNY   91  57  31 W9        30.03F
LAMPASAS       MOSUNNY   93  61  34 S5        30.02S HX  93
$$

TXZ095>097-106>112-122>126-135>138-148>153-164>167-292100-
EAST TEXAS

CITY           SKY/WX    TMP DP  RH WIND       PRES   REMARKS
PARIS          PTSUNNY   91  64  40 S8        29.99F HX  93
SULPHUR SPRNGS PTSUNNY   89  66  46 S10       30.01F HX  92
MOUNT PLEASANT PTSUNNY   90  65  44 S8        30.00F HX  92
GILMER         MOSUNNY   89  68  50 S8        30.00F HX  92
MINEOLA        MOSUNNY   90  66  45 S8        30.01F HX  92
TYLER          PTSUNNY   89  67  47 SW7       30.01F HX  92
LONGVIEW       PTSUNNY   90  69  50 S8        30.01F HX  94
MARSHALL       PTSUNNY   90  71  52 S7        30.03F HX  96
ATHENS         MOSUNNY   88  68  51 S7        29.99F HX  91
JACKSONVILLE   PTSUNNY   90  62  38 CALM      30.04F HX  90
HENDERSON      MOSUNNY   90  66  45 CALM      30.03F HX  93
CENTER         MOCLDY    90  62  39 S6        30.01F HX  90
NACOGDOCHES    SUNNY     91  63  38 CALM      30.00F HX  92
LUFKIN         MOSUNNY   92  61  35 NE5       30.00F HX  92
$$

SUPPLEMENTAL OBSERVATIONS (CENTRAL)

CITY           SKY/WX    TMP DP  RH WIND       PRES   REMARKS
PAT MAYSE LAKE   N/A     90  63  40 SE10        N/A  HX  90
GREENVILLE       N/A     90  63  40 S7          N/A  HX  90
CEDAR HILL       N/A     97  61  30 SE9         N/A  HX  97
MCGREGOR         N/A     95  59  30 S7          N/A  HX  94
TEMPLE           N/A     93  61  33 S5G13       N/A  HX  93
$$

SUPPLEMENTAL OBSERVATIONS (WEST)

CITY           SKY/WX    TMP DP  RH WIND       PRES   REMARKS
MILLERS CREEK    N/A     97  59  28 NW17G24     N/A  HX  96
POSSUM KINGDOM   N/A     99  59  26 W10         N/A  HX  98
GRANBURY         N/A     93  61  33 S13         N/A  HX  93
HAMBY            N/A     90  54  29 W14         N/A
IVIE RESERVOIR   N/A     82  61  47 NW9         N/A
COLORADO BEND    N/A     91  57  31 SE6         N/A  HX  90
$$

SUPPLEMENTAL OBSERVATIONS (EAST)

CITY           SKY/WX    TMP DP  RH WIND       PRES   REMARKS
CLARKSVILLE      N/A     91  66  43 S13         N/A  HX  94
TEXARKANA        N/A     88  72  58 S2          N/A  HX  94
LINDEN           N/A     91  66  43 S3          N/A  HX  94
GILMER           N/A     91  68  46 S6G14       N/A  HX  95
HENDERSON        N/A     91  66  43 S5          N/A  HX  94
LUFKIN           N/A     93  63  36 MISG        N/A  HX  94
N SABINE NF      N/A     97  64  34 MISG        N/A  HX  99
S SABINE NF      N/A     91  57  31 E5          N/A  HX  90
$$

SUPPLEMENTAL OBSERVATIONS ARE A COLLECTION OF AUTOMATED INSTRUMENTS
THAT ARE MAINTAINED BY A VARIETY OF FEDERAL AND STATE AGENCIES.
CERTAIN ELEMENTS...SUCH AS HUMIDITY VALUES AND SUSTAINED WIND
SPEEDS...MAY BE APPROXIMATED.



USA.gov is the U.S. government's official web portal to all federal, state and local government web resources and services.